Location: Artiguedieu
(43.5000°N, 0.5454°E)
Time: 00:54:50
(UTC+00:00)

Transit 2A Rocket - Pass Details

Date: 28 July 2021
Orbit: 586 x 916 km, 66.7° (Epoch: 16 September)

Event Time Altitude Azimuth Distance (km) Brightness Sun altitude
Rises 14:55:57 0° 209° (SSW) 2,821 8.4 46.5°
Reaches altitude 10° 14:58:07 10° 209° (SSW) 1,944 7.8 46.1°
Maximum altitude 15:02:28 89° 120° (ESE) 636 5.5 45.4°
Drops below altitude 10° 15:07:12 10° 32° (NNE) 2,104 7.1 44.6°
Sets 15:09:37 0° 32° (NNE) 3,075 7.8 44.1°
